Location: Glencliff
(36.1226°N, 86.7183°W)
Time: 18:48:35
(UTC+00:00)

USA 267 - Pass Details

Date: 25 August 2019
Orbit: 1102 x 1106 km, 123.0° (Epoch: 08 October)

Event Time Altitude Azimuth Distance (km) Brightness Sun altitude
Rises 08:23:02 0° 130° (SE) 3,906 6.2 -30.7°
Reaches altitude 10° 08:25:30 10° 129° (SE) 2,951 5.6 -30.3°
Maximum altitude 08:32:01 79° 44° (NE) 1,123 3.2 -29.4°
Drops below altitude 10° 08:38:34 10° 319° (NW) 2,964 5.5 -28.4°
Sets 08:41:03 0° 318° (NW) 3,925 6.2 -28.0°
